QPF
0.00 0.00 0.00 0.01 0.00 0.00 0.00 0.00 0.00 0.00 0.00 0.00 0.00 0.00 0.00 0.00 0.00 0.00 0.00 0.00 0.00 0.00 0.00 0.00 0.01 0.01 0.01 0.00 0.00 0.00 0.00 0.00 0.00 0.00 0.00 0.00 0.00 0.00 0.00 0.01 0.02 0.01 0.00
0.00 0.00 0.00 0.01 0.01 0.01 0.01 0.01 0.00 0.00 0.00 0.00 0.00 0.00 0.00 0.00 0.00 0.00 0.00 0.00 0.00 0.01 0.01 0.01 0.01 0.00 0.00 0.00 0.00 0.00 0.00 0.00 0.00 0.00 0.00 0.00 0.00 0.00 0.01 0.01 0.02 0.01 0.00
0.01 0.00 0.00 0.01 0.01 0.01 0.01 0.01 0.01 0.01 0.01 0.00 0.00 0.01 0.01 0.00 0.00 0.00 0.00 0.00 0.00 0.01 0.01 0.01 0.01 0.01 0.01 0.00 0.00 0.00 0.00 0.00 0.00 0.00 0.01 0.01 0.00 0.00 0.00 0.00 0.01 0.00 0.00
0.01 0.01 0.00 0.01 0.01 0.01 0.02 0.02 0.02 0.02 0.01 0.01 0.00 0.00 0.00 0.00 0.00 0.00 0.00 0.00 0.01 0.01 0.01 0.01 0.01 0.01 0.01 0.00 0.00 0.00 0.00 0.00 0.01 0.02 0.05 0.03 0.01 0.00 0.00 0.00 0.00 0.00 0.00
0.01 0.01 0.00 0.00 0.01 0.01 0.01 0.02 0.02 0.02 0.02 0.01 0.01 0.01 0.01 0.01 0.01 0.00 0.01 0.01 0.01 0.01 0.01 0.01 0.01 0.01 0.00 0.01 0.01 0.01 0.00 0.00 0.01 0.04 0.06 0.05 0.04 0.01 0.00 0.00 0.00 0.00 0.00
0.02 0.01 0.00 0.01 0.01 0.01 0.01 0.01 0.02 0.03 0.02 0.02 0.02 0.01 0.01 0.01 0.01 0.01 0.01 0.01 0.01 0.01 0.01 0.01 0.01 0.00 0.00 0.01 0.01 0.00 0.00 0.01 0.01 0.03 0.05 0.04 0.04 0.02 0.01 0.01 0.00 0.00 0.01
0.02 0.02 0.01 0.00 0.00 0.01 0.00 0.01 0.02 0.03 0.03 0.03 0.03 0.02 0.02 0.01 0.01 0.01 0.01 0.01 0.01 0.01 0.01 0.01 0.01 0.00 0.01 0.01 0.00 0.00 0.00 0.01 0.02 0.05 0.07 0.04 0.05 0.02 0.01 0.01 0.01 0.02 0.02
0.02 0.02 0.01 0.00 0.00 0.01 0.01 0.01 0.02 0.02 0.03 0.03 0.03 0.03 0.03 0.02 0.02 0.02 0.01 0.01 0.02 0.02 0.02 0.01 0.01 0.01 0.01 0.01 0.00 0.00 0.00 0.00 0.02 0.02 0.03 0.05 0.05 0.02 0.01 0.01 0.01 0.02 0.01
0.01 0.01 0.01 0.00 0.00 0.00 0.00 0.00 0.01 0.02 0.02 0.03 0.03 0.03 0.03 0.03 0.02 0.02 0.03 0.03 0.03 0.02 0.02 0.02 0.02 0.01 0.01 0.01 0.01 0.01 0.00 0.00 0.02 0.01 0.02 0.03 0.02 0.01 0.01 0.01 0.01 0.01 0.01
0.01 0.01 0.01 0.01 0.00 0.00 0.00 0.00 0.01 0.01 0.02 0.02 0.03 0.02 0.03 0.02 0.02 0.02 0.02 0.03 0.03 0.03 0.03 0.02 0.02 0.02 0.01 0.01 0.01 0.01 0.00 0.00 0.01 0.01 0.03 0.04 0.02 0.02 0.03 0.02 0.02 0.02 0.02
0.03 0.04 0.03 0.03 0.03 0.02 0.01 0.01 0.01 0.01 0.01 0.02 0.02 0.02 0.02 0.04 0.07 0.07 0.03 0.04 0.04 0.03 0.03 0.03 0.02 0.02 0.01 0.01 0.01 0.01 0.00 0.01 0.03 0.06 0.10 0.08 0.04 0.03 0.03 0.03 0.03 0.04 0.03
0.05 0.07 0.07 0.12 0.14 0.07 0.10 0.11 0.06 0.05 0.05 0.04 0.07 0.07 0.08 0.12 0.14 0.12 0.11 0.08 0.06 0.05 0.03 0.03 0.02 0.02 0.01 0.02 0.02 0.02 0.01 0.02 0.08 0.13 0.17 0.18 0.11 0.06 0.03 0.02 0.03 0.02 0.02
0.07 0.10 0.06 0.09 0.11 0.12 0.14 0.18 0.12 0.12 0.14 0.13 0.13 0.15 0.16 0.18 0.16 0.14 0.18 0.15 0.11 0.08 0.07 0.08 0.04 0.03 0.04 0.05 0.07 0.06 0.05 0.07 0.09 0.16 0.20 0.20 0.16 0.09 0.05 0.03 0.03 0.02 0.03
0.10 0.13 0.07 0.10 0.09 0.11 0.15 0.15 0.12 0.11 0.13 0.15 0.16 0.16 0.20 0.19 0.18 0.21 0.21 0.21 0.21 0.20 0.18 0.18 0.12 0.08 0.07 0.07 0.07 0.08 0.08 0.08 0.14 0.19 0.24 0.24 0.20 0.10 0.06 0.04 0.04 0.04 0.04
0.11 0.10 0.07 0.05 0.05 0.06 0.10 0.14 0.14 0.15 0.16 0.13 0.13 0.14 0.16 0.18 0.20 0.24 0.23 0.22 0.22 0.24 0.24 0.21 0.17 0.14 0.11 0.08 0.07 0.06 0.07 0.08 0.12 0.20 0.21 0.17 0.13 0.09 0.08 0.08 0.07 0.06 0.06
0.11 0.06 0.05 0.05 0.07 0.08 0.09 0.12 0.16 0.17 0.18 0.16 0.15 0.14 0.14 0.17 0.19 0.20 0.21 0.19 0.19 0.20 0.24 0.24 0.19 0.20 0.17 0.14 0.12 0.10 0.10 0.09 0.10 0.13 0.16 0.16 0.10 0.08 0.08 0.10 0.10 0.09 0.08
0.06 0.05 0.04 0.04 0.04 0.06 0.06 0.08 0.10 0.12 0.14 0.13 0.10 0.09 0.08 0.10 0.14 0.16 0.17 0.17 0.18 0.19 0.24 0.25 0.22 0.23 0.21 0.19 0.19 0.18 0.17 0.13 0.12 0.15 0.16 0.16 0.14 0.12 0.09 0.09 0.09 0.08 0.08
0.04 0.04 0.04 0.04 0.05 0.05 0.06 0.07 0.09 0.10 0.12 0.11 0.09 0.09 0.08 0.10 0.11 0.12 0.13 0.15 0.17 0.17 0.20 0.21 0.22 0.22 0.24 0.24 0.22 0.21 0.21 0.19 0.15 0.16 0.15 0.16 0.16 0.14 0.10 0.07 0.07 0.07 0.08
0.03 0.05 0.05 0.04 0.05 0.05 0.06 0.08 0.08 0.08 0.08 0.08 0.09 0.09 0.09 0.10 0.12 0.11 0.13 0.16 0.16 0.17 0.18 0.19 0.21 0.21 0.22 0.22 0.20 0.19 0.19 0.21 0.22 0.19 0.17 0.16 0.15 0.14 0.11 0.09 0.07 0.07 0.08
0.03 0.04 0.04 0.04 0.04 0.05 0.06 0.07 0.07 0.07 0.08 0.09 0.09 0.10 0.10 0.10 0.12 0.13 0.13 0.16 0.17 0.18 0.22 0.24 0.24 0.20 0.21 0.23 0.20 0.19 0.18 0.18 0.18 0.18 0.18 0.18 0.17 0.15 0.14 0.13 0.10 0.07 0.07
0.02 0.02 0.03 0.03 0.03 0.04 0.05 0.07 0.06 0.06 0.06 0.06 0.07 0.06 0.06 0.07 0.09 0.11 0.13 0.14 0.15 0.15 0.18 0.23 0.26 0.24 0.21 0.22 0.22 0.21 0.19 0.18 0.18 0.18 0.18 0.18 0.16 0.13 0.12 0.12 0.11 0.10 0.10
0.02 0.02 0.02 0.03 0.03 0.04 0.05 0.09 0.09 0.07 0.06 0.07 0.07 0.07 0.06 0.06 0.07 0.08 0.11 0.11 0.11 0.13 0.15 0.18 0.22 0.24 0.22 0.21 0.20 0.21 0.19 0.17 0.15 0.15 0.18 0.18 0.16 0.14 0.14 0.12 0.12 0.13 0.13
0.01 0.02 0.02 0.03 0.03 0.04 0.05 0.09 0.11 0.08 0.05 0.05 0.06 0.06 0.07 0.07 0.07 0.08 0.09 0.09 0.10 0.12 0.12 0.13 0.17 0.22 0.21 0.24 0.25 0.24 0.22 0.21 0.18 0.18 0.18 0.17 0.17 0.16 0.16 0.14 0.13 0.13 0.12
0.01 0.01 0.01 0.03 0.03 0.04 0.04 0.05 0.04 0.04 0.04 0.05 0.06 0.05 0.05 0.05 0.05 0.06 0.06 0.07 0.07 0.08 0.08 0.08 0.12 0.17 0.20 0.22 0.25 0.23 0.22 0.22 0.22 0.21 0.21 0.20 0.21 0.21 0.19 0.17 0.14 0.13 0.15
0.00 0.01 0.01 0.02 0.03 0.04 0.04 0.05 0.04 0.04 0.05 0.06 0.07 0.06 0.05 0.05 0.05 0.05 0.05 0.05 0.05 0.06 0.07 0.07 0.08 0.11 0.13 0.16 0.19 0.20 0.22 0.23 0.22 0.20 0.19 0.20 0.19 0.18 0.17 0.18 0.17 0.14 0.14
0.00 0.01 0.02 0.02 0.02 0.03 0.04 0.05 0.04 0.04 0.05 0.06 0.05 0.05 0.05 0.05 0.05 0.05 0.06 0.07 0.06 0.06 0.05 0.06 0.07 0.08 0.10 0.12 0.14 0.17 0.17 0.17 0.16 0.18 0.18 0.17 0.17 0.18 0.18 0.18 0.17 0.14 0.12
MSLP
1007.74 1007.94 1008.47 1009.25 1010.14 1011.01 1011.75 1012.30 1012.66 1012.86 1012.99 1013.13 1013.33 1013.62 1013.99 1014.40 1014.79 1015.12 1015.36 1015.51 1015.60 1015.67 1015.76 1015.89 1016.08 1016.31 1016.56 1016.78 1016.97 1017.11 1017.20 1017.27 1017.36 1017.48 1017.64 1017.85 1018.08 1018.31 1018.52 1018.70 1018.82 1018.90 1018.97
1007.90 1008.15 1008.70 1009.47 1010.32 1011.14 1011.82 1012.32 1012.64 1012.85 1013.01 1013.20 1013.48 1013.86 1014.31 1014.76 1015.17 1015.49 1015.69 1015.79 1015.83 1015.87 1015.94 1016.07 1016.27 1016.52 1016.78 1017.01 1017.19 1017.30 1017.37 1017.42 1017.49 1017.61 1017.79 1018.03 1018.30 1018.58 1018.82 1019.02 1019.16 1019.25 1019.31
1008.14 1008.42 1008.96 1009.69 1010.49 1011.23 1011.85 1012.30 1012.61 1012.83 1013.03 1013.29 1013.65 1014.09 1014.57 1015.05 1015.45 1015.73 1015.89 1015.95 1015.96 1015.99 1016.06 1016.22 1016.44 1016.72 1016.98 1017.21 1017.36 1017.44 1017.47 1017.48 1017.54 1017.66 1017.86 1018.13 1018.45 1018.78 1019.07 1019.31 1019.48 1019.60 1019.67
1008.43 1008.73 1009.25 1009.93 1010.65 1011.32 1011.87 1012.29 1012.59 1012.83 1013.09 1013.41 1013.83 1014.31 1014.81 1015.28 1015.65 1015.90 1016.02 1016.05 1016.06 1016.09 1016.19 1016.38 1016.64 1016.93 1017.20 1017.40 1017.52 1017.55 1017.54 1017.52 1017.55 1017.66 1017.88 1018.19 1018.55 1018.93 1019.27 1019.56 1019.77 1019.91 1020.02
1008.70 1009.02 1009.52 1010.15 1010.80 1011.41 1011.91 1012.30 1012.61 1012.89 1013.19 1013.57 1014.02 1014.53 1015.04 1015.48 1015.83 1016.04 1016.13 1016.16 1016.17 1016.24 1016.38 1016.61 1016.91 1017.21 1017.47 1017.64 1017.71 1017.69 1017.62 1017.56 1017.57 1017.69 1017.92 1018.25 1018.64 1019.05 1019.43 1019.75 1019.99 1020.17 1020.30
1008.87 1009.22 1009.72 1010.31 1010.93 1011.49 1011.97 1012.35 1012.67 1012.98 1013.32 1013.74 1014.22 1014.74 1015.23 1015.66 1015.98 1016.17 1016.26 1016.30 1016.35 1016.46 1016.65 1016.92 1017.24 1017.54 1017.78 1017.91 1017.92 1017.85 1017.74 1017.65 1017.64 1017.75 1017.99 1018.33 1018.74 1019.16 1019.55 1019.88 1020.14 1020.34 1020.49
1008.90 1009.29 1009.80 1010.40 1011.00 1011.55 1012.01 1012.40 1012.74 1013.08 1013.45 1013.89 1014.38 1014.90 1015.38 1015.79 1016.09 1016.28 1016.39 1016.47 1016.56 1016.73 1016.97 1017.27 1017.60 1017.89 1018.10 1018.18 1018.15 1018.04 1017.89 1017.78 1017.76 1017.87 1018.11 1018.45 1018.85 1019.26 1019.63 1019.95 1020.21 1020.41 1020.58
1008.76 1009.20 1009.75 1010.38 1010.99 1011.55 1012.03 1012.44 1012.80 1013.15 1013.55 1013.99 1014.48 1014.97 1015.44 1015.84 1016.14 1016.35 1016.49 1016.61 1016.77 1016.99 1017.27 1017.59 1017.92 1018.19 1018.36 1018.40 1018.33 1018.19 1018.03 1017.92 1017.91 1018.02 1018.26 1018.59 1018.97 1019.35 1019.70 1019.98 1020.21 1020.40 1020.57
1008.50 1008.99 1009.60 1010.27 1010.92 1011.51 1012.02 1012.44 1012.81 1013.18 1013.56 1013.99 1014.46 1014.93 1015.38 1015.77 1016.07 1016.31 1016.50 1016.68 1016.89 1017.16 1017.47 1017.80 1018.11 1018.35 1018.48 1018.50 1018.41 1018.26 1018.10 1018.01 1018.01 1018.15 1018.39 1018.71 1019.08 1019.43 1019.74 1019.99 1020.19 1020.35 1020.50
1008.23 1008.77 1009.43 1010.14 1010.83 1011.45 1011.98 1012.41 1012.78 1013.13 1013.50 1013.89 1014.32 1014.76 1015.19 1015.57 1015.89 1016.16 1016.39 1016.63 1016.89 1017.18 1017.51 1017.83 1018.12 1018.33 1018.43 1018.42 1018.32 1018.18 1018.05 1017.99 1018.04 1018.20 1018.47 1018.80 1019.15 1019.48 1019.76 1019.99 1020.16 1020.30 1020.44
1008.09 1008.66 1009.35 1010.09 1010.79 1011.42 1011.95 1012.37 1012.72 1013.03 1013.35 1013.70 1014.09 1014.49 1014.89 1015.26 1015.59 1015.90 1016.17 1016.45 1016.74 1017.06 1017.38 1017.68 1017.94 1018.11 1018.18 1018.16 1018.07 1017.95 1017.87 1017.86 1017.95 1018.16 1018.45 1018.80 1019.16 1019.49 1019.77 1019.99 1020.16 1020.30 1020.43
1008.22 1008.79 1009.48 1010.20 1010.88 1011.48 1011.97 1012.35 1012.65 1012.91 1013.18 1013.47 1013.79 1014.15 1014.52 1014.89 1015.23 1015.56 1015.87 1016.18 1016.49 1016.81 1017.11 1017.39 1017.60 1017.74 1017.79 1017.76 1017.68 1017.60 1017.56 1017.61 1017.75 1018.00 1018.34 1018.71 1019.10 1019.46 1019.76 1020.01 1020.20 1020.36 1020.50
1008.71 1009.24 1009.87 1010.53 1011.15 1011.68 1012.09 1012.40 1012.63 1012.81 1013.00 1013.22 1013.49 1013.80 1014.15 1014.51 1014.87 1015.22 1015.55 1015.88 1016.20 1016.51 1016.78 1017.02 1017.20 1017.30 1017.33 1017.30 1017.25 1017.20 1017.21 1017.29 1017.48 1017.77 1018.14 1018.55 1018.98 1019.38 1019.73 1020.03 1020.28 1020.49 1020.66
1009.56 1010.02 1010.55 1011.10 1011.60 1012.02 1012.32 1012.52 1012.66 1012.75 1012.86 1013.02 1013.23 1013.50 1013.83 1014.19 1014.56 1014.93 1015.28 1015.62 1015.94 1016.23 1016.48 1016.68 1016.82 1016.90 1016.91 1016.89 1016.85 1016.83 1016.87 1016.99 1017.21 1017.52 1017.91 1018.35 1018.81 1019.26 1019.67 1020.04 1020.37 1020.64 1020.88
1010.70 1011.05 1011.45 1011.85 1012.21 1012.48 1012.65 1012.73 1012.75 1012.76 1012.79 1012.87 1013.04 1013.28 1013.59 1013.95 1014.33 1014.72 1015.09 1015.44 1015.75 1016.03 1016.25 1016.42 1016.54 1016.59 1016.61 1016.59 1016.57 1016.58 1016.64 1016.78 1017.00 1017.31 1017.71 1018.15 1018.63 1019.11 1019.59 1020.03 1020.43 1020.79 1021.10
1011.97 1012.20 1012.45 1012.69 1012.88 1012.99 1013.03 1012.98 1012.90 1012.81 1012.77 1012.79 1012.91 1013.13 1013.43 1013.80 1014.19 1014.60 1014.99 1015.35 1015.66 1015.93 1016.13 1016.29 1016.39 1016.44 1016.47 1016.47 1016.47 1016.51 1016.58 1016.72 1016.93 1017.22 1017.59 1018.01 1018.48 1018.98 1019.49 1019.98 1020.46 1020.89 1021.27
1013.18 1013.29 1013.40 1013.49 1013.53 1013.50 1013.40 1013.25 1013.07 1012.90 1012.79 1012.76 1012.84 1013.04 1013.33 1013.69 1014.11 1014.53 1014.94 1015.31 1015.63 1015.90 1016.10 1016.25 1016.36 1016.43 1016.48 1016.51 1016.55 1016.61 1016.70 1016.84 1017.03 1017.28 1017.60 1017.98 1018.41 1018.89 1019.39 1019.91 1020.43 1020.91 1021.35
1014.18 1014.19 1014.18 1014.15 1014.06 1013.92 1013.72 1013.48 1013.23 1013.00 1012.83 1012.75 1012.80 1012.96 1013.24 1013.60 1014.02 1014.46 1014.88 1015.27 1015.60 1015.88 1016.10 1016.26 1016.39 1016.49 1016.58 1016.67 1016.75 1016.85 1016.97 1017.10 1017.27 1017.48 1017.75 1018.06 1018.43 1018.86 1019.33 1019.84 1020.36 1020.87 1021.35
1014.86 1014.81 1014.73 1014.61 1014.45 1014.24 1013.98 1013.68 1013.38 1013.10 1012.88 1012.76 1012.76 1012.89 1013.14 1013.48 1013.90 1014.34 1014.78 1015.18 1015.53 1015.82 1016.05 1016.25 1016.41 1016.56 1016.70 1016.85 1017.00 1017.15 1017.30 1017.46 1017.62 1017.80 1018.01 1018.26 1018.56 1018.92 1019.34 1019.81 1020.30 1020.80 1021.29
1015.22 1015.15 1015.03 1014.89 1014.70 1014.46 1014.18 1013.86 1013.53 1013.21 1012.96 1012.79 1012.74 1012.82 1013.02 1013.34 1013.74 1014.17 1014.61 1015.01 1015.38 1015.68 1015.94 1016.16 1016.36 1016.55 1016.76 1016.97 1017.19 1017.41 1017.61 1017.81 1017.99 1018.16 1018.34 1018.55 1018.79 1019.09 1019.44 1019.85 1020.30 1020.77 1021.24
1015.33 1015.27 1015.17 1015.03 1014.86 1014.63 1014.36 1014.05 1013.71 1013.38 1013.08 1012.87 1012.76 1012.78 1012.93 1013.20 1013.56 1013.97 1014.39 1014.80 1015.16 1015.47 1015.74 1015.97 1016.20 1016.43 1016.69 1016.96 1017.24 1017.53 1017.81 1018.06 1018.29 1018.49 1018.68 1018.87 1019.09 1019.35 1019.65 1020.00 1020.40 1020.82 1021.26
1015.31 1015.29 1015.23 1015.13 1015.00 1014.82 1014.58 1014.29 1013.96 1013.62 1013.30 1013.03 1012.87 1012.83 1012.91 1013.13 1013.43 1013.80 1014.20 1014.58 1014.92 1015.22 1015.48 1015.72 1015.95 1016.19 1016.47 1016.79 1017.12 1017.48 1017.83 1018.15 1018.45 1018.71 1018.95 1019.18 1019.42 1019.67 1019.96 1020.28 1020.63 1021.02 1021.41
1015.28 1015.32 1015.32 1015.28 1015.21 1015.08 1014.89 1014.63 1014.32 1013.97 1013.63 1013.33 1013.11 1013.00 1013.03 1013.17 1013.42 1013.74 1014.09 1014.43 1014.74 1015.01 1015.23 1015.44 1015.64 1015.87 1016.14 1016.46 1016.82 1017.22 1017.63 1018.04 1018.43 1018.78 1019.11 1019.42 1019.72 1020.03 1020.34 1020.67 1021.01 1021.37 1021.73
1015.36 1015.46 1015.52 1015.55 1015.52 1015.44 1015.30 1015.07 1014.78 1014.44 1014.09 1013.75 1013.49 1013.34 1013.30 1013.38 1013.57 1013.83 1014.13 1014.42 1014.67 1014.89 1015.06 1015.20 1015.34 1015.51 1015.74 1016.03 1016.39 1016.80 1017.26 1017.73 1018.21 1018.68 1019.13 1019.56 1019.97 1020.37 1020.76 1021.14 1021.50 1021.85 1022.19
1015.58 1015.75 1015.87 1015.93 1015.95 1015.91 1015.79 1015.59 1015.32 1014.99 1014.64 1014.29 1014.01 1013.81 1013.73 1013.76 1013.89 1014.10 1014.33 1014.56 1014.76 1014.90 1014.99 1015.06 1015.11 1015.20 1015.35 1015.57 1015.89 1016.29 1016.77 1017.30 1017.87 1018.45 1019.03 1019.60 1020.15 1020.67 1021.16 1021.62 1022.03 1022.40 1022.73
1015.96 1016.18 1016.33 1016.42 1016.46 1016.43 1016.32 1016.15 1015.89 1015.58 1015.24 1014.90 1014.61 1014.39 1014.28 1014.27 1014.36 1014.51 1014.69 1014.86 1014.99 1015.05 1015.07 1015.04 1015.00 1014.99 1015.04 1015.18 1015.43 1015.79 1016.26 1016.82 1017.46 1018.14 1018.84 1019.55 1020.25 1020.90 1021.51 1022.06 1022.54 1022.94 1023.27
Thickness
5818 5813 5806 5803 5800 5797 5794 5791 5788 5786 5784 5782 5780 5779 5778 5776 5775 5773 5771 5768 5766 5764 5762 5760 5758 5757 5755 5754 5753 5752 5751 5750 5749 5748 5746 5744 5743 5742 5740 5739 5738 5736 5734
5820 5810 5804 5801 5798 5795 5792 5789 5786 5783 5780 5779 5777 5775 5774 5772 5771 5769 5767 5765 5763 5761 5759 5758 5756 5754 5753 5752 5751 5749 5749 5748 5747 5745 5744 5742 5741 5739 5738 5738 5737 5734 5732
5817 5808 5802 5799 5796 5792 5789 5786 5783 5780 5778 5775 5773 5772 5770 5769 5767 5765 5764 5762 5760 5758 5757 5755 5754 5752 5751 5749 5748 5747 5746 5746 5745 5744 5744 5742 5739 5737 5736 5735 5734 5732 5730
5814 5807 5801 5796 5793 5790 5787 5784 5780 5777 5775 5772 5770 5768 5767 5765 5763 5762 5760 5759 5757 5755 5754 5752 5751 5750 5748 5747 5746 5745 5745 5744 5744 5743 5743 5742 5739 5736 5734 5732 5731 5730 5728
5811 5804 5797 5793 5790 5787 5784 5781 5778 5775 5772 5770 5767 5765 5763 5762 5760 5758 5757 5755 5754 5753 5751 5750 5748 5747 5746 5745 5744 5743 5743 5743 5743 5743 5743 5742 5739 5735 5733 5731 5729 5728 5726
5808 5801 5793 5790 5787 5784 5781 5778 5775 5772 5769 5767 5765 5762 5760 5758 5756 5755 5754 5752 5751 5750 5748 5747 5746 5745 5744 5743 5742 5742 5742 5742 5742 5743 5743 5741 5738 5734 5732 5730 5728 5726 5725
5806 5797 5790 5786 5783 5780 5777 5774 5771 5769 5767 5764 5762 5760 5757 5755 5753 5752 5751 5750 5748 5747 5746 5744 5743 5742 5741 5741 5740 5740 5740 5740 5741 5744 5744 5741 5737 5734 5731 5728 5726 5725 5723
5803 5794 5786 5781 5779 5776 5773 5770 5768 5765 5763 5761 5759 5757 5754 5752 5751 5749 5748 5747 5745 5744 5743 5742 5740 5740 5739 5738 5738 5738 5738 5739 5742 5744 5743 5740 5736 5733 5730 5727 5725 5724 5722
5799 5791 5784 5779 5775 5771 5768 5766 5763 5761 5759 5757 5755 5753 5751 5749 5748 5746 5745 5744 5742 5741 5740 5739 5738 5737 5736 5736 5736 5736 5737 5737 5738 5741 5741 5738 5735 5732 5729 5726 5724 5723 5721
5794 5788 5783 5778 5773 5769 5764 5761 5759 5757 5755 5753 5751 5749 5748 5746 5744 5743 5742 5740 5739 5738 5737 5736 5736 5735 5734 5734 5734 5734 5734 5734 5736 5739 5738 5736 5734 5731 5728 5725 5723 5721 5720
5786 5783 5780 5776 5771 5768 5764 5758 5755 5753 5751 5749 5747 5745 5744 5743 5742 5740 5740 5738 5736 5735 5734 5734 5733 5733 5732 5732 5732 5732 5731 5732 5735 5736 5736 5733 5731 5729 5727 5724 5722 5720 5718
5775 5775 5775 5771 5767 5765 5762 5755 5752 5750 5748 5746 5745 5742 5741 5741 5740 5740 5738 5735 5733 5731 5731 5730 5730 5730 5730 5731 5731 5730 5729 5730 5731 5732 5733 5730 5728 5726 5724 5723 5721 5719 5717
5770 5767 5766 5764 5762 5761 5758 5752 5750 5748 5746 5743 5742 5739 5738 5737 5737 5737 5734 5732 5730 5728 5727 5727 5727 5727 5729 5730 5730 5729 5728 5729 5730 5730 5728 5727 5726 5724 5722 5720 5719 5717 5715
5761 5759 5760 5759 5757 5755 5752 5750 5748 5745 5743 5741 5739 5736 5734 5733 5732 5732 5730 5729 5727 5726 5725 5724 5724 5725 5726 5728 5729 5729 5729 5727 5727 5727 5725 5724 5723 5721 5720 5717 5716 5715 5713
5753 5753 5753 5753 5751 5750 5748 5746 5744 5741 5738 5737 5736 5733 5730 5728 5727 5727 5726 5725 5725 5723 5720 5720 5721 5722 5723 5725 5726 5727 5727 5727 5727 5725 5723 5721 5720 5718 5717 5715 5714 5712 5711
5745 5746 5747 5746 5746 5744 5741 5739 5738 5735 5732 5733 5730 5726 5725 5724 5722 5722 5722 5721 5720 5719 5718 5717 5718 5719 5719 5721 5722 5723 5723 5723 5722 5722 5720 5718 5717 5716 5714 5712 5711 5710 5708
5738 5740 5739 5740 5738 5735 5733 5732 5731 5729 5728 5725 5723 5720 5719 5717 5716 5715 5715 5716 5716 5715 5714 5714 5715 5716 5715 5715 5716 5717 5717 5717 5717 5717 5716 5715 5713 5712 5711 5709 5708 5706 5705
5732 5732 5732 5733 5729 5727 5725 5724 5723 5722 5720 5718 5716 5714 5712 5711 5709 5709 5710 5710 5710 5710 5710 5710 5710 5708 5708 5708 5708 5709 5711 5711 5711 5711 5710 5710 5709 5708 5707 5706 5704 5703 5702
5723 5723 5722 5722 5721 5720 5719 5716 5715 5714 5712 5710 5708 5707 5705 5704 5703 5703 5703 5703 5703 5704 5704 5705 5704 5703 5702 5701 5701 5701 5703 5704 5704 5704 5704 5704 5704 5704 5703 5701 5700 5699 5698
5717 5716 5714 5714 5712 5712 5711 5709 5707 5705 5703 5701 5699 5698 5698 5696 5695 5696 5696 5696 5696 5696 5697 5697 5696 5697 5697 5695 5694 5694 5694 5695 5696 5697 5697 5697 5697 5698 5697 5696 5695 5693 5692
5709 5707 5705 5704 5703 5702 5701 5699 5697 5695 5694 5692 5691 5691 5690 5688 5687 5688 5688 5689 5689 5689 5689 5690 5689 5690 5689 5688 5685 5684 5685 5688 5689 5689 5690 5690 5690 5690 5690 5689 5688 5687 5686
5698 5697 5696 5694 5693 5693 5692 5691 5689 5688 5686 5684 5683 5682 5681 5680 5679 5680 5680 5681 5681 5681 5681 5682 5682 5682 5682 5683 5680 5677 5675 5676 5679 5681 5682 5683 5683 5683 5683 5683 5682 5681 5679
5689 5687 5685 5683 5683 5683 5683 5683 5681 5680 5678 5676 5675 5673 5672 5671 5671 5671 5671 5671 5672 5673 5673 5674 5675 5674 5673 5675 5676 5673 5670 5669 5668 5671 5673 5674 5674 5675 5675 5675 5675 5673 5672
5681 5679 5676 5674 5673 5673 5673 5671 5670 5668 5666 5665 5665 5664 5664 5663 5662 5662 5662 5663 5664 5665 5666 5666 5668 5668 5668 5667 5669 5670 5670 5669 5663 5659 5661 5663 5665 5665 5666 5665 5664 5664 5663
5674 5670 5667 5665 5663 5662 5662 5661 5659 5658 5657 5656 5656 5655 5655 5654 5654 5653 5654 5654 5655 5656 5657 5659 5660 5660 5661 5662 5662 5663 5663 5663 5662 5657 5652 5652 5652 5653 5654 5654 5653 5653 5652
5667 5662 5658 5656 5653 5652 5651 5650 5649 5648 5647 5646 5645 5645 5645 5645 5645 5644 5645 5645 5646 5647 5649 5650 5652 5653 5654 5655 5656 5657 5657 5656 5655 5653 5649 5645 5642 5641 5642 5642 5642 5642 5642